DELWG EDFH-EDDK

Flight info

Callsign DELWG
Flight time 0h 37m
Altitude
Route EDFM/27
Aircraft C152

Departure

Time 2026-04-26 18:28
Airport Frankfurt-Hahn Airport (EDFH)

Arrival

Time 2026-04-26 19:05
Airport Cologne Bonn Airport (EDDK)
Time Latitude Longitude Altitude Speed Heading
2026-04-26 18:26 49.94597 7.26127 1617 ft 10 kts
2026-04-26 18:26 49.94609 7.26133 1613 ft 0 kts 33°
2026-04-26 18:27 49.94617 7.26141 1616 ft 7 kts 32°
2026-04-26 18:27 49.94801 7.26317 1643 ft 49 kts 28°
2026-04-26 18:27 49.95156 7.26650 1689 ft 70 kts 28°
2026-04-26 18:28 49.95582 7.27052 1936 ft 73 kts 36°
2026-04-26 18:28 49.96058 7.27408 2156 ft 77 kts 11°
2026-04-26 18:28 49.96599 7.27329 2406 ft 80 kts 351°
2026-04-26 18:28 49.97168 7.27087 2538 ft 90 kts 348°
2026-04-26 18:29 49.97762 7.26707 2646 ft 97 kts 341°
2026-04-26 18:29 49.98402 7.26235 2615 ft 108 kts 341°
2026-04-26 18:29 49.99108 7.25736 2526 ft 112 kts 343°
2026-04-26 18:29 49.99787 7.25233 2457 ft 106 kts 334°
2026-04-26 18:30 50.00395 7.24576 2504 ft 106 kts 326°
2026-04-26 18:30 50.00970 7.23842 2548 ft 106 kts 325°
2026-04-26 18:30 50.01546 7.23140 2610 ft 105 kts 335°
2026-04-26 18:30 50.02199 7.22657 2632 ft 105 kts 339°
2026-04-26 18:31 50.02847 7.22164 2718 ft 101 kts 339°
2026-04-26 18:31 50.03461 7.21689 2844 ft 97 kts 339°
2026-04-26 18:31 50.04061 7.21227 2965 ft 96 kts 339°
2026-04-26 18:31 50.04666 7.20771 3090 ft 96 kts 339°
2026-04-26 18:32 50.05261 7.20326 3191 ft 97 kts 339°
2026-04-26 18:32 50.05890 7.19864 3127 ft 107 kts 340°
2026-04-26 18:32 50.06590 7.19353 2905 ft 114 kts 340°
2026-04-26 18:32 50.07322 7.18799 2684 ft 117 kts 339°
2026-04-26 18:33 50.08054 7.18257 2466 ft 119 kts 340°
2026-04-26 18:33 50.08777 7.17717 2362 ft 108 kts 340°
2026-04-26 18:33 50.09417 7.17221 2344 ft 97 kts 339°
2026-04-26 18:33 50.10020 7.16766 2334 ft 96 kts 339°
2026-04-26 18:34 50.10630 7.16296 2338 ft 100 kts 339°
2026-04-26 18:34 50.11250 7.15810 2334 ft 100 kts 339°
2026-04-26 18:34 50.11872 7.15325 2334 ft 100 kts 339°
2026-04-26 18:34 50.12497 7.14836 2335 ft 100 kts 339°
2026-04-26 18:35 50.13128 7.14350 2341 ft 103 kts 339°
2026-04-26 18:35 50.13777 7.13880 2335 ft 103 kts 339°
2026-04-26 18:35 50.14429 7.13415 2342 ft 104 kts 339°
2026-04-26 18:35 50.15081 7.12948 2336 ft 103 kts 340°
2026-04-26 18:36 50.15733 7.12459 2342 ft 105 kts 339°
2026-04-26 18:36 50.16383 7.11971 2344 ft 102 kts 339°
2026-04-26 18:36 50.17027 7.11488 2343 ft 103 kts 339°
2026-04-26 18:36 50.17680 7.11007 2362 ft 103 kts 339°
2026-04-26 18:37 50.18333 7.10543 2441 ft 103 kts 340°
2026-04-26 18:37 50.18973 7.10079 2496 ft 102 kts 339°
2026-04-26 18:37 50.19622 7.09620 2476 ft 102 kts 339°
2026-04-26 18:37 50.20244 7.09174 2498 ft 99 kts 339°
2026-04-26 18:38 50.20874 7.08707 2502 ft 102 kts 339°
2026-04-26 18:38 50.21531 7.08235 2510 ft 107 kts 339°
2026-04-26 18:38 50.22223 7.07757 2506 ft 109 kts 339°
2026-04-26 18:38 50.22922 7.07284 2510 ft 110 kts 339°
2026-04-26 18:39 50.23608 7.06816 2636 ft 104 kts 339°
2026-04-26 18:39 50.24257 7.06360 2786 ft 100 kts 339°
2026-04-26 18:39 50.24877 7.05920 2927 ft 97 kts 339°
2026-04-26 18:39 50.25482 7.05491 3079 ft 95 kts 339°
2026-04-26 18:40 50.26073 7.05069 3222 ft 92 kts 339°
2026-04-26 18:40 50.26658 7.04655 3373 ft 93 kts 339°
2026-04-26 18:40 50.27258 7.04240 3524 ft 94 kts 338°
2026-04-26 18:40 50.27851 7.03839 3671 ft 92 kts 339°
2026-04-26 18:41 50.28448 7.03510 3825 ft 91 kts 347°
2026-04-26 18:41 50.29049 7.03264 3966 ft 86 kts 348°
2026-04-26 18:41 50.29631 7.03061 4121 ft 86 kts 347°
2026-04-26 18:41 50.30217 7.02866 4270 ft 87 kts 348°
2026-04-26 18:42 50.30821 7.02675 4436 ft 90 kts 348°
2026-04-26 18:42 50.31442 7.02489 4590 ft 92 kts 349°
2026-04-26 18:42 50.32072 7.02381 4743 ft 92 kts 354°
2026-04-26 18:42 50.32710 7.02329 4899 ft 91 kts 354°
2026-04-26 18:43 50.33352 7.02271 5008 ft 97 kts 354°
2026-04-26 18:43 50.34044 7.02211 5010 ft 101 kts 354°
2026-04-26 18:43 50.34743 7.02150 5017 ft 103 kts 354°
2026-04-26 18:43 50.35467 7.02086 5016 ft 105 kts 354°
2026-04-26 18:44 50.36202 7.02023 5010 ft 106 kts 354°
2026-04-26 18:44 50.36931 7.01958 5016 ft 105 kts 354°
2026-04-26 18:44 50.37669 7.01893 5004 ft 105 kts 354°
2026-04-26 18:44 50.38391 7.01825 4997 ft 103 kts 354°
2026-04-26 18:45 50.39102 7.01759 5001 ft 102 kts 354°
2026-04-26 18:45 50.39813 7.01691 5005 ft 103 kts 354°
2026-04-26 18:45 50.40532 7.01622 5009 ft 104 kts 354°
2026-04-26 18:45 50.41256 7.01550 5009 ft 104 kts 354°
2026-04-26 18:46 50.41984 7.01476 5007 ft 104 kts 354°
2026-04-26 18:46 50.42698 7.01396 5008 ft 102 kts 354°
2026-04-26 18:46 50.43414 7.01320 5006 ft 103 kts 354°
2026-04-26 18:46 50.44129 7.01248 5001 ft 103 kts 354°
2026-04-26 18:47 50.44846 7.01175 5011 ft 104 kts 354°
2026-04-26 18:47 50.45571 7.01090 5008 ft 104 kts 354°
2026-04-26 18:47 50.46289 7.01010 5001 ft 103 kts 354°
2026-04-26 18:47 50.47004 7.00938 5002 ft 101 kts 354°
2026-04-26 18:48 50.47704 7.00866 5009 ft 102 kts 354°
2026-04-26 18:48 50.48422 7.00792 5013 ft 105 kts 354°
2026-04-26 18:48 50.49142 7.00716 5015 ft 103 kts 354°
2026-04-26 18:48 50.49862 7.00637 5015 ft 105 kts 354°
2026-04-26 18:49 50.50583 7.00566 5005 ft 105 kts 354°
2026-04-26 18:49 50.51321 7.00486 4993 ft 106 kts 354°
2026-04-26 18:49 50.52053 7.00405 4999 ft 105 kts 354°
2026-04-26 18:49 50.52782 7.00330 4993 ft 104 kts 354°
2026-04-26 18:50 50.53506 7.00251 4996 ft 105 kts 354°
2026-04-26 18:50 50.54236 7.00169 4995 ft 105 kts 354°
2026-04-26 18:50 50.54963 7.00087 4992 ft 105 kts 354°
2026-04-26 18:50 50.55689 7.00002 5000 ft 104 kts 354°
2026-04-26 18:51 50.56424 6.99918 4920 ft 108 kts 354°
2026-04-26 18:51 50.57171 6.99830 4791 ft 108 kts 354°
2026-04-26 18:51 50.57923 6.99734 4664 ft 109 kts 354°
2026-04-26 18:51 50.58676 6.99633 4539 ft 109 kts 354°
2026-04-26 18:52 50.59441 6.99530 4382 ft 111 kts 354°
2026-04-26 18:52 50.60211 6.99415 4238 ft 112 kts 354°
2026-04-26 18:52 50.60986 6.99294 4080 ft 112 kts 354°
2026-04-26 18:52 50.61753 6.99381 3933 ft 111 kts 13°
2026-04-26 18:53 50.62483 6.99668 3779 ft 104 kts 13°
2026-04-26 18:53 50.63168 6.99918 3620 ft 100 kts 13°
2026-04-26 18:53 50.63835 7.00153 3467 ft 97 kts 14°
2026-04-26 18:53 50.64496 7.00381 3307 ft 97 kts 13°
2026-04-26 18:54 50.65149 7.00604 3152 ft 95 kts 13°
2026-04-26 18:54 50.65794 7.00825 3001 ft 96 kts 13°
2026-04-26 18:54 50.66445 7.01055 2849 ft 96 kts 13°
2026-04-26 18:54 50.67101 7.01283 2693 ft 96 kts 13°
2026-04-26 18:55 50.67756 7.01511 2538 ft 97 kts 13°
2026-04-26 18:55 50.68410 7.01738 2401 ft 95 kts 13°
2026-04-26 18:55 50.69022 7.01951 2370 ft 87 kts 13°
2026-04-26 18:55 50.69633 7.02165 2371 ft 90 kts 13°
2026-04-26 18:56 50.70241 7.02375 2369 ft 89 kts 13°
2026-04-26 18:56 50.70836 7.02578 2358 ft 85 kts 13°
2026-04-26 18:56 50.71413 7.02779 2356 ft 85 kts 15°
2026-04-26 18:56 50.71987 7.03010 2364 ft 86 kts 15°
2026-04-26 18:57 50.72563 7.03243 2359 ft 85 kts 15°
2026-04-26 18:57 50.72758 7.03321 2358 ft 85 kts 15°
2026-04-26 18:57 50.73710 7.03708 2354 ft 85 kts 15°
2026-04-26 18:57 50.74272 7.03989 2358 ft 85 kts 20°
2026-04-26 18:58 50.74848 7.04308 2335 ft 89 kts 20°
2026-04-26 18:58 50.75436 7.04646 2384 ft 91 kts 20°
2026-04-26 18:58 50.76018 7.04982 2437 ft 88 kts 21°
2026-04-26 18:58 50.76596 7.05311 2423 ft 90 kts 20°
2026-04-26 18:59 50.77190 7.05620 2407 ft 90 kts 20°
2026-04-26 18:59 50.77766 7.05992 2398 ft 89 kts 25°
2026-04-26 18:59 50.78326 7.06355 2411 ft 87 kts 24°
2026-04-26 18:59 50.78874 7.06778 2376 ft 88 kts 29°
2026-04-26 19:00 50.79402 7.07238 2370 ft 87 kts 30°
2026-04-26 19:00 50.79920 7.07720 2367 ft 87 kts 33°
2026-04-26 19:00 50.80414 7.08260 2364 ft 85 kts 37°
2026-04-26 19:00 50.80889 7.08831 2345 ft 86 kts 38°
2026-04-26 19:01 50.81361 7.09413 2325 ft 86 kts 37°
2026-04-26 19:01 50.81838 7.09983 2316 ft 84 kts 37°
2026-04-26 19:01 50.82290 7.10485 2272 ft 77 kts 33°
2026-04-26 19:01 50.82745 7.10886 2223 ft 74 kts 26°
2026-04-26 19:02 50.83207 7.11217 2109 ft 70 kts 25°
2026-04-26 19:02 50.83625 7.11616 1955 ft 70 kts 40°
2026-04-26 19:02 50.83815 7.12337 1715 ft 75 kts 91°
2026-04-26 19:02 50.83773 7.12596 1645 ft 76 kts 109°
2026-04-26 19:03 50.83388 7.13489 1416 ft 69 kts 118°
2026-04-26 19:03 50.83230 7.14170 1248 ft 62 kts 89°
2026-04-26 19:03 50.83320 7.14819 1200 ft 58 kts 54°
2026-04-26 19:03 50.83588 7.15307 1173 ft 57 kts 41°
2026-04-26 19:04 50.83901 7.15701 1139 ft 59 kts 26°
2026-04-26 19:04 50.84299 7.15736 1093 ft 57 kts 346°
2026-04-26 19:04 50.84649 7.15455 854 ft 59 kts 329°
2026-04-26 19:04 50.84976 7.15079 644 ft 54 kts 322°
2026-04-26 19:05 50.85516 7.14324 448 ft 56 kts 324°
2026-04-26 19:05 50.85810 7.13908 344 ft 55 kts 325°
2026-04-26 19:05 50.86079 7.13533 263 ft 48 kts 322°
2026-04-26 19:06 50.86315 7.13202 246 ft 46 kts 321°
2026-04-26 19:06 50.86571 7.12833 238 ft 48 kts 316°
2026-04-26 19:06 50.86703 7.12639 234 ft 10 kts 316°
2026-04-26 19:06 50.86782 7.12655 232 ft 10 kts 49°
2026-04-26 19:07 50.86790 7.12671 232 ft 0 kts 47°
2026-04-26 19:07 50.86819 7.12722 233 ft 9 kts 47°
2026-04-26 19:07 50.86900 7.12707 231 ft 17 kts 317°
2026-04-26 19:08 50.86996 7.12564 228 ft 18 kts 312°
2026-04-26 19:08 50.87082 7.12443 226 ft 10 kts 320°
2026-04-26 19:08 50.87121 7.12401 226 ft 8 kts
2026-04-26 19:08 50.87155 7.12446 226 ft 7 kts 50°
2026-04-26 19:09 50.87173 7.12479 226 ft 1 kts 48°
2026-04-26 19:09 50.87182 7.12493 226 ft 0 kts 52°
2026-04-26 19:10 50.87188 7.12504 226 ft 5 kts 43°
2026-04-26 19:10 50.87208 7.12531 226 ft 3 kts 353°
2026-04-26 19:10 50.87234 7.12495 226 ft 1 kts 324°
2026-04-26 19:10 50.87245 7.12478 226 ft 0 kts 320°